Location: Greenwich
(51.4790°N, 0.0090°E)
Time: 19:18:27
(UTC+01:00)

Vanguard 1 - Visible Passes

Search period start: 19 April 2024 00:00
Search period end: 29 April 2024 00:00
Orbit: 653 x 3825 km, 34.2° (Epoch: 17 April)

Date Brightness Start Highest point End Pass type
(mag) Time Alt. Az. Time Alt. Az. Time Alt. Az.
19 Apr 13.7 03:28:15 10° S 03:40:52 19° SE 03:51:00 10° ESE visible
20 Apr 13.5 03:45:48 10° SSW 04:00:50 24° SSE 04:12:22 10° ESE visible
21 Apr 13.9 01:53:11 10° SSE 01:58:59 12° SE 02:04:24 10° ESE visible
21 Apr 13.4 04:04:11 10° SSW 04:20:51 28° SSE 04:33:12 10° ESE visible
22 Apr 13.8 02:10:13 13° SSE 02:18:42 16° SE 02:28:49 10° ESE visible
22 Apr 13.3 04:22:56 10° SSW 04:40:53 33° SSE 04:53:44 10° ESE visible
23 Apr 13.7 02:28:45 16° S 02:38:29 21° SE 02:50:54 10° ESE visible
23 Apr 13.2 04:42:09 10° SW 05:00:57 37° SSE 05:14:04 10° ESE visible
24 Apr 13.5 02:47:12 18° S 02:58:19 26° SSE 03:12:08 10° E visible
24 Apr 13.1 05:01:41 10° SW 05:21:02 40° S 05:34:15 10° ESE visible
25 Apr 13.9 00:53:00 12° SE 00:56:27 13° SE 01:03:58 10° ESE visible
25 Apr 13.4 03:05:35 19° SSW 03:18:13 31° SSE 03:32:57 10° E visible
26 Apr 13.7 01:11:18 17° SSE 01:15:58 18° SE 01:27:44 10° ESE visible
26 Apr 13.3 03:23:52 19° SSW 03:38:11 35° SSE 03:53:27 10° E visible
27 Apr 13.5 01:29:31 20° SSE 01:35:34 23° SE 01:49:43 10° E visible
27 Apr 13.2 03:42:05 17° SW 03:58:12 39° SSE 04:13:48 10° ESE visible
28 Apr 13.4 01:47:38 23° S 01:55:15 28° SE 02:10:56 10° E visible
28 Apr 13.1 04:00:12 15° SW 04:18:15 42° SSE 04:34:00 10° ESE visible
